Cloud_Cover
1 0 5 5 89 71 100 71 97 29 3 0 5 5 5 34 21 2 40 86 2 1 4 11 6 82 5 20 5 5 29 5 8 55 15 43 97 58 87 100 57 5 47 61
4 2 4 6 90 78 31 66 100 74 70 1 4 0 4 5 6 5 4 94 91 23 7 2 14 4 0 3 3 0 8 5 5 28 26 100 98 74 98 94 100 9 22 88
100 100 26 5 85 25 38 100 91 88 100 5 2 84 100 1 5 5 3 100 100 90 32 0 0 0 1 0 0 3 1 2 3 32 4 9 93 98 22 80 99 100 99 91
81 99 35 100 95 87 100 90 100 100 100 36 77 64 100 100 3 2 0 26 100 100 20 5 2 5 3 0 5 4 0 0 0 0 0 0 29 8 79 99 99 100 100 100
0 3 0 17 92 80 64 64 37 100 100 9 69 85 100 100 83 9 5 37 20 100 99 82 30 0 0 92 64 5 0 0 0 0 0 0 0 50 5 19 11 99 51 99
0 0 0 0 2 3 16 2 4 29 78 12 28 94 72 50 100 99 16 17 3 91 99 100 77 5 5 84 7 5 5 0 0 2 4 0 2 91 100 30 26 72 11 48
0 0 0 0 0 0 0 0 0 0 5 5 45 100 96 99 100 100 96 75 0 5 100 99 100 5 68 48 12 3 5 4 0 0 66 4 0 3 8 5 57 96 94 78
0 0 0 0 0 0 0 0 0 0 5 2 44 100 100 0 1 2 2 4 0 0 83 88 100 98 100 65 5 5 7 5 5 5 5 14 1 5 20 5 99 98 100 100
0 0 0 0 0 0 0 0 0 0 0 0 10 94 100 4 0 0 3 6 0 0 89 68 20 61 100 100 77 5 5 4 5 5 4 5 0 5 41 98 14 53 77 84
0 0 0 0 0 0 0 0 0 0 0 0 0 1 14 69 5 2 2 5 0 0 0 64 99 100 100 100 68 3 4 10 7 4 4 0 0 4 11 10 28 69 100 49
0 0 0 0 0 0 0 0 0 0 0 3 2 1 7 78 53 0 6 10 0 0 0 1 38 32 95 95 98 55 18 70 13 0 0 4 2 20 40 96 100 98 62 47
5 0 4 5 49 0 0 0 0 0 0 0 0 1 100 94 100 6 0 0 0 0 0 0 0 0 5 99 100 100 74 33 5 0 0 0 1 43 100 100 100 100 100 46
0 0 4 63 49 63 2 0 0 0 0 0 0 1 11 5 5 5 0 0 0 0 0 0 0 0 0 5 97 100 100 100 5 0 0 0 4 74 100 99 79 99 100 58
0 0 1 5 57 100 60 52 2 0 0 0 0 1 0 1 0 0 0 0 0 0 0 0 0 0 0 0 0 28 60 13 2 0 0 0 19 100 100 100 100 100 91 75
0 0 0 4 4 57 91 72 4 5 5 1 0 0 2 11 3 0 0 0 0 0 0 0 0 0 0 0 0 0 0 0 0 0 3 10 50 100 100 100 70 99 52 53
0 0 0 0 0 0 0 0 0 1 5 5 5 0 0 0 2 0 0 0 0 0 0 0 0 0 0 0 0 0 0 0 0 0 38 86 90 90 91 100 68 88 100 54
0 0 0 0 0 0 0 0 1 2 4 81 91 5 79 1 0 0 0 0 0 0 0 0 0 0 0 0 0 0 0 0 9 6 61 90 95 100 100 99 52 100 99 100
0 0 0 0 0 0 0 5 10 5 4 93 98 100 47 10 0 0 0 0 0 0 0 0 0 0 0 0 0 0 6 40 35 79 96 43 65 96 100 56 77 100 77 100
0 0 0 0 0 2 5 2 73 76 3 14 54 78 99 1 0 0 0 0 0 0 0 0 0 0 0 0 0 0 64 89 57 71 100 98 100 80 66 98 100 100 100 100
2 3 5 1 0 1 5 95 0 0 0 5 21 74 0 0 0 100 0 0 0 0 0 0 0 0 0 0 0 35 44 70 58 100 100 96 100 67 82 100 100 94 100 100
5 7 5 5 4 5 5 8 4 0 1 3 0 0 0 0 0 0 2 0 0 18 0 0 0 0 0 5 39 57 77 100 100 100 100 98 73 47 100 100 100 100 100 100
0 2 5 5 5 36 42 4 37 8 0 0 3 0 0 0 0 0 0 0 1 2 28 29 0 34 62 42 2 100 100 100 100 100 97 65 66 5 100 100 100 100 100 100
0 0 1 2 4 11 68 44 0 1 0 0 0 0 0 2 0 0 0 0 1 5 65 87 96 71 75 32 87 100 100 100 100 100 100 100 100 83 100 100 100 100 100 100
0 0 0 0 40 5 1 9 6 5 4 3 0 0 0 0 4 1 0 0 0 1 61 31 100 100 100 100 100 100 100 100 100 99 100 100 100 100 100 100 100 100 100 100
0 0 0 0 0 1 0 1 1 5 5 70 1 5 0 0 0 34 52 2 6 0 46 45 72 100 100 100 100 100 100 100 100 97 100 100 100 100 92 90 98 100 100 100
0 0 0 0 3 0 0 4 5 5 85 96 97 18 5 1 4 2 26 99 4 3 51 39 98 99 100 100 100 100 100 100 100 100 100 100 89 81 73 31 68 100 100 100